TimePDT,TemperatureF,Dew PointF,Humidity,Sea Level PressureIn,VisibilityMPH,Wind Direction,Wind SpeedMPH,Gust SpeedMPH,PrecipitationIn,Events,Conditions,WindDirDegrees,DateUTC
12:15 AM,55.4,50.0,82,30.22,3.0,SE,5.8,-,N/A,,Overcast,130,2011-10-29 07:15:00
12:35 AM,55.4,50.0,82,30.23,4.0,SE,5.8,-,0.01,,Overcast,130,2011-10-29 07:35:00
12:55 AM,55.4,50.0,82,30.23,3.0,ESE,4.6,-,N/A,,Overcast,120,2011-10-29 07:55:00
1:15 AM,55.4,50.0,82,30.23,5.0,ESE,5.8,-,N/A,,Overcast,110,2011-10-29 08:15:00
1:35 AM,55.4,50.0,82,30.23,7.0,SE,6.9,-,N/A,,Overcast,140,2011-10-29 08:35:00
1:55 AM,55.4,50.0,82,30.24,5.0,SSE,5.8,-,N/A,,Overcast,150,2011-10-29 08:55:00
2:15 AM,55.4,50.0,82,30.23,8.0,SSE,6.9,-,N/A,,Overcast,150,2011-10-29 09:15:00
2:35 AM,55.4,50.0,82,30.24,5.0,SE,5.8,-,0.01,,Overcast,130,2011-10-29 09:35:00
2:55 AM,55.4,50.0,82,30.24,5.0,SE,6.9,-,N/A,,Overcast,140,2011-10-29 09:55:00
3:15 AM,55.4,50.0,82,30.24,5.0,SSE,5.8,-,N/A,,Overcast,150,2011-10-29 10:15:00
3:35 AM,55.4,50.0,82,30.24,9.0,SE,6.9,-,N/A,,Overcast,140,2011-10-29 10:35:00
3:55 AM,55.4,50.0,82,30.24,4.0,SE,6.9,-,N/A,,Overcast,140,2011-10-29 10:55:00
4:15 AM,55.4,50.0,82,30.24,4.0,SE,5.8,-,0.01,,Overcast,130,2011-10-29 11:15:00
4:35 AM,55.4,51.8,88,30.24,3.0,SE,4.6,-,0.01,,Overcast,130,2011-10-29 11:35:00
4:55 AM,55.4,51.8,88,30.24,5.0,South,4.6,-,0.01,,Overcast,180,2011-10-29 11:55:00
5:15 AM,55.4,51.8,88,30.25,4.0,South,4.6,-,N/A,,Overcast,180,2011-10-29 12:15:00
5:35 AM,55.4,51.8,88,30.25,7.0,Calm,Calm,-,N/A,,Overcast,0,2011-10-29 12:35:00
5:55 AM,55.4,51.8,88,30.26,6.0,SSE,3.5,-,0.01,,Overcast,150,2011-10-29 12:55:00
6:15 AM,55.4,51.8,88,30.26,3.0,Calm,Calm,-,0.01,,Overcast,0,2011-10-29 13:15:00
6:35 AM,57.2,51.8,82,30.26,9.0,South,4.6,-,0.01,,Overcast,180,2011-10-29 13:35:00
6:55 AM,55.4,51.8,88,30.26,5.0,South,3.5,-,0.01,,Overcast,190,2011-10-29 13:55:00
7:15 AM,55.4,51.8,88,30.26,8.0,SSE,4.6,-,0.01,,Overcast,160,2011-10-29 14:15:00
7:35 AM,55.4,51.8,88,30.27,4.0,Calm,Calm,-,0.01,,Overcast,0,2011-10-29 14:35:00
7:55 AM,55.4,51.8,88,30.27,7.0,Calm,Calm,-,N/A,,Overcast,0,2011-10-29 14:55:00
8:15 AM,55.4,51.8,88,30.28,2.5,Calm,Calm,-,0.02,,Overcast,0,2011-10-29 15:15:00
8:35 AM,55.4,51.8,88,30.28,2.5,Calm,Calm,-,0.04,,Overcast,0,2011-10-29 15:35:00
8:55 AM,55.4,51.8,88,30.29,3.0,Calm,Calm,-,0.05,,Overcast,0,2011-10-29 15:55:00
9:15 AM,57.2,51.8,82,30.29,2.0,Calm,Calm,-,0.01,,Overcast,0,2011-10-29 16:15:00
9:35 AM,57.2,51.8,82,30.30,2.0,Calm,Calm,-,0.02,,Overcast,0,2011-10-29 16:35:00
9:55 AM,57.2,53.6,88,30.30,2.5,Calm,Calm,-,0.03,,Overcast,0,2011-10-29 16:55:00
10:15 AM,57.2,53.6,88,30.30,2.5,Calm,Calm,-,0.01,,Overcast,0,2011-10-29 17:15:00
10:35 AM,57.2,53.6,88,30.30,3.0,ESE,4.6,-,0.02,,Overcast,110,2011-10-29 17:35:00
10:55 AM,57.2,53.6,88,30.30,4.0,ESE,4.6,-,0.02,,Overcast,120,2011-10-29 17:55:00
11:15 AM,57.2,53.6,88,30.31,5.0,ESE,4.6,-,N/A,,Overcast,120,2011-10-29 18:15:00
11:35 AM,57.2,53.6,88,30.31,1.5,Calm,Calm,-,N/A,,Overcast,0,2011-10-29 18:35:00
11:55 AM,57.2,53.6,88,30.32,2.0,Calm,Calm,-,0.01,,Overcast,0,2011-10-29 18:55:00
12:15 PM,57.2,53.6,88,30.32,2.0,Calm,Calm,-,0.02,,Overcast,0,2011-10-29 19:15:00
12:35 PM,59.0,53.6,82,30.32,3.0,Calm,Calm,-,0.03,,Overcast,0,2011-10-29 19:35:00
12:55 PM,59.0,55.4,88,30.31,3.0,ESE,4.6,-,0.03,,Overcast,120,2011-10-29 19:55:00
1:15 PM,60.8,55.4,82,30.30,4.0,ESE,4.6,-,0.01,,Overcast,120,2011-10-29 20:15:00
1:35 PM,59.0,53.6,82,30.30,3.0,WNW,3.5,-,0.01,,Overcast,300,2011-10-29 20:35:00
1:55 PM,59.0,55.4,88,30.30,6.0,Calm,Calm,-,0.01,,Overcast,0,2011-10-29 20:55:00
2:15 PM,59.0,55.4,88,30.29,7.0,Calm,Calm,-,N/A,,Overcast,0,2011-10-29 21:15:00
2:35 PM,59.0,55.4,88,30.29,3.0,WNW,3.5,-,0.01,,Overcast,290,2011-10-29 21:35:00
2:55 PM,59.0,55.4,88,30.28,4.0,Calm,Calm,-,0.01,,Overcast,0,2011-10-29 21:55:00
3:15 PM,59.0,55.4,88,30.28,1.2,WNW,3.5,-,0.01,,Overcast,290,2011-10-29 22:15:00
3:35 PM,59.0,53.6,82,30.28,1.2,WNW,5.8,-,0.01,,Overcast,290,2011-10-29 22:35:00
3:55 PM,57.2,53.6,88,30.28,0.8,WNW,3.5,-,0.01,,Overcast,300,2011-10-29 22:55:00
4:15 PM,59.0,53.6,82,30.28,0.8,WNW,3.5,-,N/A,,Overcast,300,2011-10-29 23:15:00
4:35 PM,57.2,53.6,88,30.28,0.8,WNW,3.5,-,0.01,,Overcast,300,2011-10-29 23:35:00
4:55 PM,57.2,53.6,88,30.27,0.5,WNW,3.5,-,N/A,,Overcast,300,2011-10-29 23:55:00
5:15 PM,57.2,53.6,88,30.26,0.5,Calm,Calm,-,N/A,,Overcast,0,2011-10-30 00:15:00
5:35 PM,59.0,53.6,82,30.26,1.0,Calm,Calm,-,N/A,,Overcast,0,2011-10-30 00:35:00
5:55 PM,57.2,53.6,88,30.26,0.8,West,4.6,-,N/A,,Overcast,280,2011-10-30 00:55:00
6:15 PM,57.2,53.6,88,30.26,1.5,Calm,Calm,-,N/A,,Overcast,0,2011-10-30 01:15:00
6:35 PM,57.2,53.6,88,30.25,1.2,Calm,Calm,-,N/A,,Overcast,0,2011-10-30 01:35:00
6:55 PM,57.2,53.6,88,30.25,0.8,Calm,Calm,-,N/A,,Overcast,0,2011-10-30 01:55:00
7:15 PM,57.2,53.6,88,30.25,1.2,West,3.5,-,N/A,,Overcast,270,2011-10-30 02:15:00
7:35 PM,57.2,53.6,88,30.25,2.0,Calm,Calm,-,N/A,,Overcast,0,2011-10-30 02:35:00
7:55 PM,57.2,53.6,88,30.25,2.5,Calm,Calm,-,N/A,,Overcast,0,2011-10-30 02:55:00
8:15 PM,57.2,53.6,88,30.25,3.0,Calm,Calm,-,N/A,,Overcast,0,2011-10-30 03:15:00
8:35 PM,57.2,53.6,88,30.26,4.0,Calm,Calm,-,N/A,,Overcast,0,2011-10-30 03:35:00
8:55 PM,57.2,53.6,88,30.25,2.0,Calm,Calm,-,N/A,,Overcast,0,2011-10-30 03:55:00
9:15 PM,57.2,53.6,88,30.25,2.5,Calm,Calm,-,N/A,,Overcast,0,2011-10-30 04:15:00
9:35 PM,57.2,53.6,88,30.25,2.0,Calm,Calm,-,N/A,,Overcast,0,2011-10-30 04:35:00
9:55 PM,57.2,53.6,88,30.25,4.0,Calm,Calm,-,N/A,,Overcast,0,2011-10-30 04:55:00
10:15 PM,59.0,55.4,88,30.25,10.0,Calm,Calm,-,N/A,,Overcast,0,2011-10-30 05:15:00
10:35 PM,59.0,55.4,88,30.25,10.0,South,3.5,-,N/A,,Overcast,170,2011-10-30 05:35:00
10:55 PM,59.0,53.6,82,30.25,5.0,Calm,Calm,-,N/A,,Overcast,0,2011-10-30 05:55:00
11:15 PM,59.0,55.4,88,30.25,10.0,Calm,Calm,-,N/A,,Overcast,0,2011-10-30 06:15:00
11:35 PM,57.2,53.6,88,30.24,5.0,Calm,Calm,-,N/A,,Overcast,0,2011-10-30 06:35:00
11:55 PM,57.2,53.6,88,30.24,3.0,Calm,Calm,-,N/A,,Overcast,0,2011-10-30 06:55:00